Weather History for Glenwood, MN

Change the Weather History Date:

Saturday, March 10, 2012

  Actual Average Record
Temperature  
Mean Temperature 42 °F -  
Max Temperature 53 °F 35 °F 53 °F (2012)
Min Temperature 30 °F 15 °F -13 °F (2003)
Degree Days  
Heating Degree Days 24    
Moisture  
Dew Point 27 °F    
Average Humidity 59    
Maximum Humidity 75    
Minimum Humidity 41    
Precipitation  
Precipitation 0.00 in - - ()
Sea Level Pressure  
Sea Level Pressure 29.86 in    
Wind  
Wind Speed 10 mph (SSW)    
Max Wind Speed 17 mph    
Max Gust Speed 21 mph    
Visibility 10 miles    
Events      
Averages and records for this station are not official NWS values.
T = Trace of Precipitation, MM = Missing Value Source: NWS Daily Summary

Daily Weather History Graph

Daily Weather History Graph

Search for Another Location

Airport:

Trip Planner

Search our weather history database for the weather conditions in past years. The results will help you decide how hot, cold, wet, or windy it might be!

Date:

Astronomy

Mar. 10, 2012 Rise Set
Actual Time 6:42 AM CST 6:21 PM CST
Civil Twilight 6:12 AM CST 6:50 PM CST
Nautical Twilight 5:38 AM CST 7:25 PM CST
Astronomical Twilight 5:03 AM CST 8:00 PM CST
Moon 9:48 PM CST (3/10) 7:26 AM CST (3/10)
Length of Visible Light 12h 38m
Length of Day
11h 38m
Waning Gibbous, 92% of the Moon is Illuminated
Mar 10
Waning Gibbous
Mar 14
Last Quarter
Mar 22
New
Mar 30
First Quarter
Apr 6
Full

Hourly Weather History & Observations

Time (CST) Temp. Windchill Dew Point Humidity Pressure Visibility Wind Dir Wind Speed Gust Speed Precip Events Conditions
12:14 AM 30.2 °F 21.9 °F 21.2 °F 69% 29.98 in 10.0 mi SSE 9.2 mph - N/A   Clear
12:33 AM 30.2 °F 21.9 °F 21.2 °F 69% 29.96 in 10.0 mi SSE 9.2 mph - N/A   Clear
12:53 AM 30.2 °F 23.4 °F 21.2 °F 69% 29.95 in 10.0 mi SSE 6.9 mph - N/A   Clear
1:13 AM 30.2 °F 21.9 °F 21.2 °F 69% 29.93 in 10.0 mi SSE 9.2 mph - N/A   Clear
1:33 AM 30.2 °F 21.9 °F 21.2 °F 69% 29.91 in 10.0 mi SSE 9.2 mph - N/A   Clear
1:53 AM 32.0 °F 23.6 °F 23.0 °F 69% 29.90 in 10.0 mi South 10.4 mph - N/A   Clear
2:13 AM 30.2 °F 22.6 °F 23.0 °F 75% 29.89 in 10.0 mi South 8.1 mph - N/A   Clear
2:34 AM 32.0 °F 23.6 °F 23.0 °F 69% 29.87 in 10.0 mi South 10.4 mph - N/A   Clear
2:53 AM 32.0 °F 23.0 °F 24.8 °F 75% 29.86 in 10.0 mi South 11.5 mph - N/A   Clear
3:14 AM 32.0 °F 23.6 °F 24.8 °F 75% 29.86 in 10.0 mi South 10.4 mph - N/A   Clear
3:34 AM 33.8 °F 24.3 °F 24.8 °F 70% 29.85 in 10.0 mi SSW 13.8 mph - N/A   Clear
3:53 AM 35.6 °F 26.6 °F 24.8 °F 65% 29.84 in 10.0 mi SSW 13.8 mph - N/A   Clear
4:13 AM 33.8 °F 24.3 °F 24.8 °F 70% 29.84 in 10.0 mi SSW 13.8 mph - N/A   Clear
4:33 AM 33.8 °F 23.9 °F 24.8 °F 70% 29.84 in 10.0 mi SSW 15.0 mph - N/A   Clear
4:54 AM 33.8 °F 23.9 °F 24.8 °F 70% 29.84 in 10.0 mi SSW 15.0 mph 20.7 mph N/A   Clear
5:13 AM 33.8 °F 24.3 °F 23.0 °F 65% 29.84 in 10.0 mi SW 13.8 mph - N/A   Clear
5:33 AM 32.0 °F 22.1 °F 23.0 °F 69% 29.84 in 10.0 mi SSW 13.8 mph - N/A   Clear
5:53 AM 32.0 °F 22.1 °F 23.0 °F 69% 29.84 in 10.0 mi SSW 13.8 mph - N/A   Clear
6:13 AM 32.0 °F 22.1 °F 23.0 °F 69% 29.84 in 10.0 mi SSW 13.8 mph - N/A   Clear
6:33 AM 32.0 °F 22.5 °F 23.0 °F 69% 29.85 in 10.0 mi SSW 12.7 mph - N/A   Clear
6:53 AM 32.0 °F 23.0 °F 23.0 °F 69% 29.85 in 10.0 mi SSW 11.5 mph - N/A   Clear
7:14 AM 33.8 °F 25.3 °F 23.0 °F 65% 29.85 in 10.0 mi SW 11.5 mph - N/A   Clear
7:33 AM 33.8 °F 25.3 °F 24.8 °F 70% 29.86 in 10.0 mi SW 11.5 mph - N/A   Clear
7:54 AM 35.6 °F 27.1 °F 24.8 °F 65% 29.85 in 10.0 mi SSW 12.7 mph - N/A   Clear
8:14 AM 35.6 °F 27.1 °F 24.8 °F 65% 29.85 in 10.0 mi SSW 12.7 mph - N/A   Clear
8:33 AM 37.4 °F 29.3 °F 24.8 °F 60% 29.86 in 10.0 mi SW 12.7 mph - N/A   Clear
8:53 AM 39.2 °F 31.6 °F 24.8 °F 56% 29.86 in 10.0 mi SSW 12.7 mph - N/A   Clear
9:14 AM 39.2 °F 31.6 °F 26.6 °F 61% 29.86 in 10.0 mi SSW 12.7 mph - N/A   Clear
9:33 AM 42.8 °F 36.6 °F 26.6 °F 53% 29.86 in 10.0 mi SW 11.5 mph - N/A   Clear
9:53 AM 44.6 °F 37.2 °F 24.8 °F 46% 29.86 in 10.0 mi SW 17.3 mph - N/A   Clear
10:14 AM 44.6 °F 38.8 °F 26.6 °F 49% 29.86 in 10.0 mi SW 11.5 mph - N/A   Clear
10:33 AM 46.4 °F 41.5 °F 26.6 °F 46% 29.87 in 10.0 mi SW 10.4 mph - N/A   Clear
10:53 AM 44.6 °F 38.8 °F 26.6 °F 49% 29.87 in 10.0 mi SSW 11.5 mph - N/A   Clear
11:14 AM 46.4 °F 40.7 °F 26.6 °F 46% 29.86 in 10.0 mi SW 12.7 mph - N/A   Clear
11:53 AM 48.2 °F - 26.6 °F 43% 29.86 in 10.0 mi SW 13.8 mph - N/A   Clear
12:14 PM 48.2 °F - 28.4 °F 46% 29.86 in 10.0 mi SSW 11.5 mph - N/A   Clear
12:33 PM 48.2 °F - 28.4 °F 46% 29.86 in 10.0 mi SSW 10.4 mph - N/A   Clear
12:54 PM 48.2 °F - 28.4 °F 46% 29.87 in 10.0 mi SW 6.9 mph - N/A   Clear
1:13 PM 50.0 °F - 28.4 °F 43% 29.87 in 10.0 mi SSW 8.1 mph - N/A   Clear
1:34 PM 51.8 °F - 28.4 °F 41% 29.86 in 10.0 mi SSW 10.4 mph - N/A   Clear
2:14 PM 51.8 °F - 30.2 °F 44% 29.86 in 10.0 mi SSW 10.4 mph - N/A   Clear
2:33 PM 51.8 °F - 30.2 °F 44% 29.86 in 10.0 mi SSW 11.5 mph - N/A   Clear
2:53 PM 51.8 °F - 30.2 °F 44% 29.86 in 10.0 mi SSW 8.1 mph - N/A   Clear
3:14 PM 51.8 °F - 30.2 °F 44% 29.86 in 10.0 mi South 10.4 mph - N/A   Clear
3:33 PM 53.6 °F - 32.0 °F 44% 29.86 in 10.0 mi South 9.2 mph - N/A   Clear
3:54 PM 53.6 °F - 32.0 °F 44% 29.86 in 10.0 mi SSW 11.5 mph - N/A   Clear
4:14 PM 51.8 °F - 33.8 °F 50% 29.85 in 10.0 mi SSW 10.4 mph - N/A   Clear
4:34 PM 51.8 °F - 33.8 °F 50% 29.85 in 10.0 mi SSW 10.4 mph - N/A   Clear
4:54 PM 51.8 °F - 33.8 °F 50% 29.85 in 10.0 mi SSW 8.1 mph - N/A   Clear
5:13 PM 50.0 °F - 33.8 °F 54% 29.85 in 10.0 mi SSW 9.2 mph - N/A   Clear
5:33 PM 48.2 °F - 33.8 °F 58% 29.85 in 10.0 mi SSW 9.2 mph - N/A   Clear
6:13 PM 44.6 °F 42.2 °F 33.8 °F 66% 29.85 in 10.0 mi SSW 4.6 mph - N/A   Clear
6:33 PM 46.4 °F 44.3 °F 32.0 °F 57% 29.85 in 10.0 mi South 4.6 mph - N/A   Clear
6:53 PM 46.4 °F 45.2 °F 32.0 °F 57% 29.85 in 10.0 mi South 3.5 mph - N/A   Clear
7:13 PM 46.4 °F 44.3 °F 32.0 °F 57% 29.85 in 10.0 mi SSE 4.6 mph - N/A   Clear
7:34 PM 44.6 °F 41.4 °F 32.0 °F 61% 29.85 in 10.0 mi SSE 5.8 mph - N/A   Clear
7:54 PM 44.6 °F 41.4 °F 32.0 °F 61% 29.85 in 10.0 mi SSE 5.8 mph - N/A   Clear
8:14 PM 44.6 °F 41.4 °F 33.8 °F 66% 29.85 in 10.0 mi South 5.8 mph - N/A   Clear
8:34 PM 42.8 °F 39.3 °F 33.8 °F 70% 29.85 in 10.0 mi South 5.8 mph - N/A   Clear
8:53 PM 42.8 °F 39.3 °F 33.8 °F 70% 29.85 in 10.0 mi South 5.8 mph - N/A   Clear
9:13 PM 42.8 °F 38.6 °F 33.8 °F 70% 29.85 in 10.0 mi South 6.9 mph - N/A   Clear
9:33 PM 42.8 °F 38.6 °F 33.8 °F 70% 29.85 in 10.0 mi South 6.9 mph - N/A   Clear
9:53 PM 41.0 °F 37.1 °F 32.0 °F 70% 29.85 in 10.0 mi South 5.8 mph - N/A   Clear
10:14 PM 42.8 °F 41.1 °F 32.0 °F 66% 29.86 in 10.0 mi SSW 3.5 mph - N/A   Clear
10:33 PM 42.8 °F 39.3 °F 32.0 °F 66% 29.87 in 10.0 mi SSW 5.8 mph - N/A   Clear
10:54 PM 39.2 °F 35.9 °F 32.0 °F 75% 29.87 in 10.0 mi SSW 4.6 mph - N/A   Clear
11:13 PM 41.0 °F 37.1 °F 30.2 °F 65% 29.87 in 10.0 mi SSW 5.8 mph - N/A   Clear
11:33 PM 39.2 °F 37.0 °F 30.2 °F 70% 29.87 in 10.0 mi SSW 3.5 mph - N/A   Clear
11:54 PM 42.8 °F 41.1 °F 32.0 °F 66% 29.87 in 10.0 mi SSW 3.5 mph - N/A   Clear